Home   Weather   Tel Aviv   Past weeks

Flag for Israel Past Weather in Tel Aviv, Israel — Yesterday and Last 2 Weeks

Now
61 °F

Clear.


Feels Like: 61 °F
Forecast: 53 / 71 °F
Wind: 2 mph from North

Location: Ben Gurion International Airport

Current Time: Feb 25, 2017 at 8:21:00 pm

Latest Report: Feb 25, 2017 at 7:50 pm


Visibility: 10 mi

Pressure: 30.18 "Hg

Humidity: 55%

Dew Point: 45 °F

Location of Tel AvivLocation

Past Weather in Tel Aviv — Graph

°F

Tel Aviv Temperature Yesterday

Maximum temperature yesterday: 68 °F (at 11:20 am)
Minimum temperature yesterday: 46 °F (at 4:50 am)
Average temperature yesterday: 57 °F

High & Low Weather Summary for the Past Weeks

 TemperatureHumidityPressure
High72 °F (Feb 25, 12:50 pm)94% (Feb 12, 2:20 am)30.39 "Hg (Feb 12, 2:20 am)
Low39 °F (Feb 19, 5:50 am)13% (Feb 19, 11:20 am)29.92 "Hg (Feb 11, 11:50 am)
Average54 °F70%30.12 "Hg
* Reported Feb 10 6:20 pm — Feb 25 6:50 pm, Tel Aviv, Weather by CustomWeather, © 2017

Note: Actual official high and low records may vary slightly from our data, if they occured in-between our weather recording intervals... More about our weather records

Advertising

Tel Aviv Weather History for the Previous 24 Hours

Scroll right to see more
 ConditionsComfort  
Time TempWeatherWind HumidityBarometerVisibility
6:50 pm
Sat, Feb 25
63 °FClear.5 mph52%30.15 "Hg10 mi
6:20 pm64 °FClear.6 mph46%30.15 "Hg10 mi
5:50 pm66 °FClear.6 mph43%30.15 "Hg10 mi
5:20 pm66 °FSunny.7 mph46%30.15 "Hg10 mi
4:50 pm70 °FSunny.7 mph40%30.15 "Hg10 mi
4:20 pm70 °FSunny.8 mph35%30.15 "Hg10 mi
3:50 pm70 °FSunny.8 mph38%30.15 "Hg10 mi
3:20 pm70 °FSunny.9 mph35%30.15 "Hg10 mi
2:50 pm70 °FSunny.10 mph46%30.15 "Hg10 mi
2:20 pm70 °FSunny.12 mph46%30.15 "Hg10 mi
1:50 pm70 °FSunny.12 mph46%30.15 "Hg10 mi
1:20 pm72 °FSunny.9 mph44%30.18 "Hg10 mi
12:50 pm72 °FSunny.9 mph41%30.18 "Hg10 mi
12:20 pm70 °FSunny.7 mph43%30.21 "Hg10 mi
11:50 am70 °FSunny.8 mph43%30.21 "Hg10 mi
11:20 am70 °FSunny.8 mph38%30.21 "Hg10 mi
10:50 am70 °FSunny.6 mph31%30.24 "Hg10 mi
10:20 am68 °FSunny.3 mph43%30.24 "Hg10 mi
9:50 am64 °FSunny.3 mph46%30.24 "Hg10 mi
9:20 am63 °FSunny.1 mph45%30.27 "Hg10 mi
8:50 am59 °FSunny.1 mph45%30.27 "Hg10 mi
8:20 am55 °FSunny.2 mph55%30.27 "Hg10 mi
7:50 am50 °FSunny.1 mph76%30.27 "Hg10 mi
7:20 am48 °FSunny.2 mph76%30.24 "Hg10 mi
6:50 am45 °FSunny.5 mph81%30.24 "Hg10 mi
6:20 am45 °FClear.2 mph87%30.24 "Hg6 mi
5:50 am45 °FClear.1 mph87%30.24 "Hg10 mi
5:20 am46 °FClear.3 mph82%30.21 "Hg10 mi
4:50 am45 °FClear.1 mph87%30.21 "Hg10 mi
4:20 am48 °FClear.1 mph87%30.21 "Hg10 mi
3:50 am46 °FClear.2 mph87%30.21 "Hg10 mi
3:20 am46 °FClear.3 mph87%30.21 "Hg10 mi
2:50 am46 °FClear.3 mph93%30.21 "Hg10 mi
2:20 am48 °FClear.3 mph87%30.21 "Hg10 mi
1:50 am50 °FClear.3 mph88%30.21 "Hg10 mi
1:20 am52 °FClear.3 mph88%30.21 "Hg10 mi
12:50 am50 °FClear.1 mph88%30.24 "Hg10 mi
12:20 am52 °FClear.6 mph88%30.24 "Hg10 mi
11:50 pm
Fri, Feb 24
54 °FClear.2 mph94%30.21 "Hg10 mi
11:20 pm52 °FClear.5 mph88%30.24 "Hg10 mi
10:50 pm52 °FClear.5 mph94%30.21 "Hg10 mi
10:20 pm54 °FClear.2 mph88%30.24 "Hg10 mi
9:50 pm55 °FClear.2 mph82%30.24 "Hg10 mi
9:20 pm55 °FClear.3 mph88%30.24 "Hg10 mi
8:50 pm57 °FClear.3 mph82%30.24 "Hg10 mi
8:20 pm59 °FClear.5 mph77%30.24 "Hg10 mi
Weather by CustomWeather, © 2017

See weather overviewHow to use our weather pages